QPF
0.00 0.00 0.00 0.00 0.01 0.01 0.01 0.01 0.00 0.00 0.00 0.00 0.00 0.00 0.01 0.01 0.00 0.00 0.00 0.00 0.00 0.00 0.00 0.00 0.00 0.00 0.00 0.00 0.00 0.00 0.00 0.00 0.00 0.00 0.00 0.00 0.00 0.00 0.00 0.00 0.00 0.00 0.00 0.00 0.00
0.00 0.00 0.00 0.00 0.01 0.01 0.01 0.01 0.00 0.01 0.01 0.01 0.00 0.00 0.01 0.00 0.00 0.00 0.00 0.00 0.00 0.00 0.00 0.00 0.00 0.00 0.00 0.00 0.00 0.00 0.00 0.00 0.00 0.00 0.00 0.00 0.00 0.00 0.00 0.00 0.00 0.00 0.00 0.00 0.00
0.00 0.00 0.00 0.01 0.01 0.01 0.01 0.01 0.00 0.00 0.00 0.00 0.00 0.01 0.01 0.00 0.00 0.00 0.00 0.00 0.00 0.00 0.00 0.00 0.00 0.00 0.00 0.00 0.00 0.00 0.00 0.00 0.00 0.00 0.00 0.00 0.00 0.00 0.00 0.00 0.00 0.00 0.00 0.00 0.00
0.01 0.00 0.00 0.00 0.01 0.01 0.01 0.01 0.00 0.00 0.00 0.00 0.00 0.01 0.01 0.00 0.00 0.00 0.00 0.00 0.00 0.00 0.00 0.00 0.00 0.00 0.00 0.00 0.00 0.00 0.00 0.00 0.00 0.00 0.00 0.00 0.00 0.00 0.00 0.00 0.00 0.00 0.00 0.00 0.00
0.01 0.01 0.01 0.01 0.01 0.01 0.01 0.01 0.00 0.00 0.00 0.00 0.01 0.01 0.00 0.00 0.00 0.00 0.00 0.00 0.00 0.00 0.00 0.00 0.00 0.00 0.00 0.00 0.00 0.00 0.00 0.00 0.00 0.00 0.00 0.00 0.00 0.00 0.00 0.00 0.00 0.00 0.00 0.00 0.00
0.01 0.01 0.00 0.01 0.01 0.01 0.01 0.01 0.00 0.00 0.00 0.00 0.01 0.00 0.00 0.00 0.00 0.00 0.00 0.00 0.00 0.00 0.00 0.00 0.00 0.00 0.00 0.00 0.00 0.00 0.00 0.00 0.00 0.00 0.00 0.00 0.00 0.00 0.00 0.00 0.00 0.00 0.00 0.00 0.00
0.00 0.00 0.01 0.00 0.01 0.01 0.01 0.00 0.00 0.00 0.00 0.01 0.01 0.00 0.00 0.00 0.00 0.00 0.00 0.00 0.00 0.00 0.00 0.00 0.00 0.00 0.00 0.00 0.00 0.00 0.00 0.00 0.00 0.00 0.00 0.00 0.00 0.00 0.00 0.00 0.00 0.00 0.00 0.00 0.00
0.00 0.00 0.01 0.01 0.01 0.00 0.00 0.00 0.00 0.00 0.01 0.00 0.00 0.00 0.00 0.00 0.00 0.00 0.00 0.00 0.00 0.00 0.00 0.00 0.00 0.00 0.00 0.00 0.00 0.00 0.00 0.00 0.00 0.00 0.00 0.00 0.00 0.00 0.00 0.00 0.00 0.00 0.00 0.00 0.00
0.01 0.01 0.01 0.01 0.01 0.00 0.00 0.01 0.00 0.01 0.00 0.00 0.00 0.00 0.00 0.00 0.00 0.00 0.00 0.00 0.00 0.00 0.00 0.00 0.00 0.00 0.00 0.00 0.00 0.00 0.00 0.00 0.00 0.00 0.00 0.00 0.00 0.00 0.00 0.00 0.00 0.00 0.00 0.00 0.00
0.00 0.00 0.00 0.00 0.00 0.00 0.01 0.00 0.01 0.00 0.00 0.00 0.00 0.00 0.00 0.00 0.00 0.00 0.00 0.00 0.00 0.00 0.00 0.00 0.00 0.00 0.00 0.00 0.00 0.00 0.00 0.00 0.00 0.00 0.00 0.00 0.00 0.00 0.00 0.00 0.00 0.00 0.00 0.00 0.00
0.00 0.00 0.00 0.00 0.00 0.01 0.00 0.00 0.00 0.00 0.00 0.00 0.00 0.00 0.00 0.00 0.00 0.00 0.00 0.00 0.00 0.00 0.00 0.00 0.00 0.00 0.00 0.00 0.00 0.00 0.00 0.00 0.00 0.00 0.00 0.00 0.00 0.00 0.00 0.00 0.00 0.00 0.00 0.00 0.00
0.00 0.00 0.00 0.00 0.00 0.01 0.00 0.00 0.00 0.00 0.00 0.00 0.00 0.00 0.00 0.00 0.00 0.00 0.00 0.00 0.00 0.00 0.00 0.00 0.00 0.00 0.00 0.00 0.00 0.00 0.00 0.00 0.00 0.00 0.00 0.00 0.00 0.00 0.00 0.00 0.00 0.00 0.00 0.00 0.00
0.00 0.00 0.00 0.00 0.01 0.01 0.00 0.00 0.00 0.00 0.00 0.00 0.00 0.00 0.00 0.00 0.00 0.00 0.00 0.00 0.00 0.00 0.00 0.00 0.00 0.00 0.00 0.00 0.00 0.00 0.00 0.00 0.00 0.00 0.00 0.00 0.00 0.00 0.00 0.00 0.00 0.00 0.00 0.00 0.00
0.00 0.00 0.00 0.00 0.00 0.00 0.00 0.00 0.00 0.00 0.00 0.00 0.00 0.00 0.00 0.00 0.00 0.00 0.00 0.00 0.00 0.00 0.00 0.00 0.00 0.00 0.00 0.00 0.00 0.00 0.00 0.00 0.00 0.00 0.00 0.00 0.00 0.00 0.00 0.00 0.00 0.00 0.00 0.00 0.00
0.00 0.00 0.00 0.00 0.00 0.00 0.00 0.00 0.00 0.00 0.00 0.00 0.00 0.00 0.00 0.00 0.00 0.00 0.00 0.00 0.00 0.00 0.00 0.00 0.00 0.00 0.00 0.00 0.00 0.00 0.00 0.00 0.00 0.00 0.00 0.00 0.00 0.00 0.00 0.00 0.00 0.00 0.00 0.00 0.00
0.00 0.00 0.00 0.00 0.00 0.00 0.00 0.00 0.00 0.00 0.00 0.00 0.00 0.00 0.00 0.00 0.00 0.00 0.00 0.00 0.00 0.00 0.00 0.00 0.00 0.00 0.00 0.00 0.00 0.00 0.00 0.00 0.00 0.00 0.00 0.00 0.00 0.00 0.00 0.00 0.00 0.00 0.00 0.00 0.00
0.00 0.00 0.00 0.00 0.00 0.00 0.00 0.00 0.00 0.00 0.00 0.00 0.00 0.00 0.00 0.00 0.00 0.00 0.00 0.00 0.00 0.00 0.00 0.00 0.00 0.00 0.00 0.00 0.00 0.00 0.00 0.00 0.00 0.00 0.00 0.00 0.00 0.00 0.00 0.00 0.00 0.00 0.00 0.00 0.00
0.00 0.00 0.00 0.00 0.00 0.00 0.00 0.00 0.00 0.00 0.00 0.00 0.00 0.00 0.00 0.00 0.00 0.00 0.00 0.00 0.00 0.00 0.00 0.00 0.00 0.00 0.00 0.00 0.00 0.00 0.00 0.00 0.00 0.00 0.00 0.00 0.00 0.00 0.00 0.00 0.00 0.00 0.00 0.00 0.00
0.00 0.00 0.00 0.00 0.00 0.00 0.00 0.00 0.00 0.00 0.00 0.00 0.00 0.00 0.00 0.00 0.00 0.00 0.00 0.00 0.00 0.00 0.00 0.00 0.00 0.00 0.00 0.00 0.00 0.00 0.00 0.00 0.00 0.00 0.00 0.00 0.00 0.00 0.00 0.00 0.00 0.00 0.00 0.00 0.00
0.00 0.00 0.00 0.00 0.00 0.00 0.00 0.00 0.00 0.00 0.00 0.00 0.00 0.00 0.00 0.00 0.00 0.00 0.00 0.00 0.00 0.00 0.00 0.00 0.00 0.00 0.00 0.00 0.00 0.00 0.00 0.00 0.00 0.00 0.00 0.00 0.00 0.00 0.00 0.00 0.00 0.00 0.00 0.00 0.00
0.00 0.00 0.00 0.00 0.00 0.00 0.00 0.00 0.00 0.00 0.00 0.00 0.00 0.00 0.00 0.00 0.00 0.00 0.00 0.00 0.00 0.00 0.00 0.00 0.00 0.00 0.00 0.00 0.00 0.00 0.00 0.00 0.00 0.00 0.00 0.00 0.00 0.00 0.00 0.00 0.00 0.00 0.00 0.00 0.00
0.00 0.00 0.00 0.00 0.00 0.00 0.00 0.00 0.00 0.00 0.00 0.00 0.00 0.00 0.00 0.00 0.00 0.00 0.00 0.00 0.00 0.00 0.00 0.00 0.00 0.00 0.00 0.00 0.00 0.00 0.00 0.00 0.00 0.00 0.00 0.00 0.00 0.00 0.00 0.00 0.00 0.00 0.00 0.00 0.00
0.00 0.00 0.00 0.00 0.00 0.00 0.00 0.00 0.00 0.00 0.00 0.00 0.00 0.00 0.00 0.00 0.00 0.00 0.00 0.00 0.00 0.00 0.00 0.00 0.00 0.00 0.00 0.00 0.00 0.00 0.00 0.00 0.00 0.00 0.00 0.00 0.00 0.00 0.00 0.00 0.00 0.00 0.00 0.00 0.00
0.00 0.00 0.00 0.00 0.00 0.00 0.00 0.00 0.00 0.00 0.00 0.00 0.00 0.00 0.00 0.00 0.00 0.00 0.00 0.00 0.00 0.00 0.00 0.00 0.00 0.00 0.00 0.00 0.00 0.00 0.00 0.00 0.00 0.00 0.00 0.00 0.00 0.00 0.00 0.00 0.00 0.00 0.00 0.00 0.00
0.00 0.00 0.00 0.00 0.00 0.00 0.00 0.00 0.00 0.00 0.00 0.00 0.00 0.00 0.00 0.00 0.00 0.00 0.00 0.00 0.00 0.00 0.00 0.00 0.00 0.00 0.00 0.00 0.00 0.00 0.00 0.00 0.00 0.00 0.00 0.00 0.00 0.00 0.00 0.00 0.00 0.00 0.00 0.00 0.00
0.00 0.00 0.00 0.00 0.00 0.00 0.00 0.00 0.00 0.00 0.00 0.00 0.00 0.00 0.00 0.00 0.00 0.00 0.00 0.00 0.00 0.00 0.00 0.00 0.00 0.00 0.00 0.00 0.00 0.00 0.00 0.00 0.00 0.00 0.00 0.00 0.00 0.00 0.00 0.00 0.00 0.00 0.00 0.00 0.00
0.00 0.00 0.00 0.00 0.00 0.00 0.00 0.00 0.00 0.00 0.00 0.00 0.00 0.00 0.00 0.00 0.00 0.00 0.00 0.00 0.00 0.00 0.00 0.00 0.00 0.00 0.00 0.00 0.00 0.00 0.00 0.00 0.00 0.00 0.00 0.00 0.00 0.00 0.00 0.00 0.00 0.00 0.00 0.00 0.00
MSLP
1018.13 1017.85 1017.78 1017.62 1017.49 1017.48 1017.41 1017.39 1017.09 1016.94 1016.92 1016.82 1016.63 1016.60 1016.54 1016.37 1015.90 1015.50 1014.36 1011.54 1011.51 1011.28 1011.19 1011.83 1012.21 1012.51 1012.76 1012.83 1012.90 1012.99 1013.68 1013.65 1012.79 1012.09 1011.82 1012.28 1012.41 1012.70 1012.74 1013.43 1013.87 1014.22 1014.67 1015.19 1016.24
1017.55 1017.65 1017.31 1017.19 1017.23 1017.23 1017.15 1017.15 1017.02 1016.86 1016.81 1016.75 1016.62 1016.60 1016.57 1016.43 1015.82 1013.94 1010.18 1010.32 1010.81 1010.97 1011.45 1011.83 1012.26 1012.55 1012.89 1012.70 1012.77 1012.79 1013.47 1012.90 1011.85 1011.70 1011.40 1012.28 1012.22 1012.84 1013.29 1014.05 1014.69 1015.03 1015.30 1015.76 1016.49
1016.99 1017.17 1016.95 1016.83 1016.97 1016.93 1016.91 1016.90 1016.83 1016.65 1016.77 1016.68 1016.62 1016.68 1016.68 1016.54 1015.22 1010.75 1008.70 1009.51 1010.36 1010.84 1011.25 1011.53 1011.91 1012.39 1012.63 1012.46 1012.38 1012.48 1012.52 1012.29 1011.30 1011.23 1011.07 1011.59 1012.50 1012.82 1013.53 1014.37 1014.65 1015.03 1015.93 1016.61 1017.05
1016.77 1016.87 1016.57 1016.53 1016.64 1016.68 1016.65 1016.59 1016.56 1016.57 1016.60 1016.57 1016.59 1016.71 1016.70 1016.34 1013.35 1009.21 1008.60 1009.17 1010.09 1010.80 1011.15 1011.50 1011.95 1012.32 1012.23 1012.11 1011.86 1012.03 1011.69 1011.30 1010.81 1010.49 1011.44 1011.96 1012.54 1013.04 1013.45 1013.60 1013.78 1014.40 1015.18 1016.34 1017.01
1016.51 1016.59 1016.25 1016.25 1016.29 1016.40 1016.36 1016.29 1016.40 1016.45 1016.47 1016.62 1016.67 1016.85 1016.54 1015.31 1011.71 1009.09 1008.92 1009.30 1010.32 1010.67 1010.95 1011.51 1011.79 1011.73 1011.69 1011.60 1011.58 1011.61 1011.24 1011.09 1010.95 1011.09 1011.68 1011.88 1012.70 1013.17 1013.65 1013.93 1014.42 1015.17 1015.86 1016.48 1017.00
1016.19 1016.11 1015.93 1015.96 1016.00 1016.13 1016.12 1016.12 1016.26 1016.34 1016.51 1016.72 1016.91 1016.90 1016.41 1013.52 1008.89 1008.96 1009.19 1009.75 1009.82 1010.32 1010.87 1011.15 1010.75 1010.64 1010.95 1011.08 1011.25 1010.99 1011.34 1011.35 1011.43 1011.48 1011.84 1012.47 1013.10 1013.23 1014.02 1014.59 1015.26 1015.63 1016.17 1016.66 1017.10
1015.83 1015.74 1015.57 1015.69 1015.71 1015.88 1015.88 1015.96 1016.14 1016.36 1016.61 1016.87 1016.96 1016.82 1015.54 1010.86 1008.61 1008.87 1009.11 1009.30 1009.33 1009.52 1010.15 1010.15 1010.22 1010.44 1010.50 1010.95 1010.88 1011.06 1011.59 1011.54 1011.73 1011.84 1012.54 1012.56 1013.88 1014.43 1014.77 1015.20 1015.74 1016.36 1016.93 1017.53 1017.96
1015.28 1015.39 1015.26 1015.37 1015.50 1015.62 1015.67 1015.87 1016.16 1016.32 1016.66 1016.89 1016.81 1016.60 1013.44 1008.91 1008.52 1008.74 1008.56 1008.64 1008.71 1008.99 1009.22 1009.08 1009.67 1010.48 1010.68 1010.75 1011.30 1011.88 1012.43 1012.65 1012.53 1012.45 1013.24 1013.42 1015.27 1016.09 1016.26 1016.05 1017.05 1017.40 1017.79 1018.17 1018.68
1014.88 1014.98 1015.00 1015.13 1015.22 1015.46 1015.74 1016.03 1016.24 1016.49 1016.76 1016.80 1016.82 1015.90 1011.70 1008.45 1008.32 1007.70 1007.75 1008.05 1008.04 1008.43 1008.81 1009.13 1009.53 1010.39 1010.93 1011.61 1012.47 1013.08 1013.26 1013.05 1013.00 1013.24 1013.84 1014.95 1016.92 1017.89 1017.41 1017.44 1018.21 1018.47 1018.79 1019.05 1019.40
1014.51 1014.48 1014.69 1014.87 1015.11 1015.57 1016.03 1016.25 1016.40 1016.63 1016.71 1016.59 1015.96 1015.02 1010.61 1008.91 1008.09 1007.74 1007.47 1007.63 1007.94 1008.07 1008.58 1009.17 1009.86 1010.81 1011.57 1012.03 1013.03 1013.40 1013.55 1013.72 1013.87 1014.46 1015.38 1017.01 1018.66 1018.94 1018.79 1018.79 1019.50 1019.55 1019.74 1020.06 1020.14
1014.13 1014.13 1014.38 1014.76 1015.14 1015.74 1016.33 1016.51 1016.67 1016.29 1015.52 1013.65 1012.97 1011.71 1009.98 1008.86 1008.21 1008.00 1007.76 1007.79 1008.19 1008.80 1009.74 1010.06 1011.08 1011.98 1012.30 1012.18 1012.42 1012.91 1013.38 1014.20 1014.85 1015.58 1016.95 1018.93 1019.52 1019.97 1019.94 1019.98 1020.23 1020.43 1020.54 1020.65 1020.63
1013.85 1013.81 1014.20 1014.72 1015.14 1015.86 1016.20 1015.25 1012.54 1011.95 1012.43 1011.65 1011.35 1010.62 1009.44 1008.98 1008.60 1008.17 1007.93 1008.42 1008.97 1009.94 1010.33 1011.05 1011.77 1011.97 1012.12 1012.09 1012.35 1013.02 1013.85 1015.11 1015.90 1016.45 1017.41 1019.25 1020.22 1020.50 1020.36 1020.68 1020.78 1020.80 1020.89 1020.85 1020.88
1013.53 1013.57 1014.13 1014.81 1015.19 1015.97 1015.21 1012.95 1011.15 1011.29 1011.61 1010.65 1009.98 1009.31 1008.48 1008.73 1008.65 1008.32 1008.32 1008.79 1009.41 1010.08 1010.81 1011.66 1012.08 1011.91 1012.06 1012.18 1012.66 1013.66 1014.36 1015.15 1016.16 1017.13 1018.06 1018.79 1020.44 1020.89 1020.89 1020.95 1020.97 1021.01 1020.97 1021.07 1021.24
1013.17 1013.52 1014.19 1014.73 1015.60 1014.51 1013.62 1010.97 1010.91 1011.25 1011.53 1010.48 1009.21 1008.07 1007.98 1008.21 1008.56 1008.39 1008.50 1008.97 1009.89 1010.89 1011.50 1012.24 1012.17 1012.33 1012.25 1012.54 1013.00 1013.88 1014.41 1015.38 1016.47 1017.05 1018.50 1018.98 1021.07 1021.21 1021.28 1021.34 1021.40 1021.41 1021.42 1021.46 1021.25
1012.78 1013.45 1013.92 1013.66 1013.98 1013.24 1011.27 1010.70 1010.97 1011.27 1011.91 1010.45 1008.87 1007.61 1007.96 1008.63 1008.99 1009.07 1009.03 1008.97 1010.24 1011.15 1012.06 1012.70 1012.53 1012.48 1012.54 1012.84 1013.17 1014.26 1014.73 1015.85 1016.88 1017.83 1018.72 1019.61 1020.34 1021.02 1021.32 1021.54 1021.45 1021.55 1021.62 1021.68 1021.77
1012.42 1013.36 1014.02 1014.60 1013.89 1011.53 1010.90 1010.73 1011.23 1012.36 1011.53 1010.17 1008.95 1008.39 1008.62 1009.03 1009.43 1009.51 1009.59 1009.73 1010.82 1011.86 1012.32 1012.80 1012.58 1012.70 1012.85 1013.10 1013.52 1014.17 1015.34 1016.66 1017.62 1018.70 1019.76 1019.69 1020.17 1021.02 1020.77 1020.28 1020.94 1021.35 1021.55 1021.88 1022.10
1012.29 1013.13 1013.54 1012.57 1011.74 1010.78 1010.87 1011.39 1012.84 1012.54 1011.32 1010.49 1009.67 1009.27 1009.44 1010.03 1010.53 1010.65 1011.23 1011.69 1012.15 1012.92 1013.87 1013.65 1013.52 1013.28 1013.13 1013.42 1013.96 1014.66 1016.09 1017.86 1019.40 1020.12 1020.52 1020.00 1020.22 1019.38 1019.35 1019.65 1020.13 1020.84 1021.49 1022.05 1022.43
1012.26 1013.05 1012.65 1011.91 1010.90 1010.91 1011.17 1012.34 1013.36 1012.21 1011.26 1010.33 1009.98 1010.08 1010.39 1010.72 1011.45 1011.80 1012.31 1012.92 1012.96 1013.26 1014.51 1014.57 1014.42 1013.84 1013.63 1013.75 1014.33 1015.36 1016.55 1018.17 1019.97 1021.07 1020.95 1020.40 1020.08 1019.00 1018.72 1019.18 1019.69 1020.49 1021.46 1022.26 1022.74
1012.45 1013.26 1012.57 1010.68 1010.60 1011.10 1012.22 1013.88 1013.08 1012.00 1010.80 1010.41 1010.33 1010.71 1011.06 1011.34 1011.82 1012.51 1013.22 1013.60 1013.68 1013.65 1014.20 1014.72 1014.63 1014.04 1013.91 1013.90 1014.49 1015.65 1016.87 1018.14 1020.09 1021.95 1021.91 1021.32 1020.20 1019.24 1019.10 1019.68 1020.20 1020.98 1021.82 1022.69 1023.36
1011.90 1012.27 1011.31 1010.42 1010.45 1010.96 1012.80 1013.47 1012.68 1011.40 1010.39 1010.14 1010.57 1010.89 1011.55 1011.85 1012.45 1013.05 1013.61 1013.98 1014.00 1014.03 1014.03 1014.72 1015.03 1014.85 1014.47 1014.41 1014.96 1015.47 1017.01 1018.56 1020.25 1022.28 1023.13 1022.16 1021.17 1020.15 1019.91 1020.00 1020.52 1021.37 1022.16 1023.08 1023.66
1011.36 1011.55 1010.84 1010.40 1010.53 1012.01 1013.61 1013.33 1012.21 1010.72 1010.10 1009.96 1010.41 1011.03 1011.73 1012.28 1012.91 1013.57 1014.09 1014.33 1014.24 1014.29 1014.26 1014.86 1015.52 1016.01 1015.45 1015.57 1015.82 1016.36 1017.40 1019.12 1020.83 1022.45 1023.31 1022.98 1021.55 1019.72 1019.61 1019.81 1020.54 1021.48 1022.30 1023.04 1023.67
1011.09 1011.57 1010.85 1010.44 1011.91 1013.46 1013.61 1012.72 1011.72 1010.43 1009.81 1009.73 1010.12 1010.86 1011.78 1012.64 1013.45 1014.05 1014.38 1014.51 1014.60 1014.72 1015.14 1015.71 1016.56 1017.25 1016.80 1016.20 1016.16 1016.47 1017.57 1019.01 1021.10 1023.05 1023.70 1023.38 1021.23 1020.03 1019.80 1019.99 1020.72 1021.84 1022.68 1023.35 1023.85
1010.87 1011.61 1011.03 1010.84 1012.61 1013.68 1013.24 1012.50 1011.63 1010.49 1009.99 1009.94 1010.45 1010.99 1011.95 1013.07 1013.97 1014.49 1014.77 1014.91 1014.92 1015.20 1015.64 1016.20 1017.41 1018.15 1017.90 1017.40 1016.79 1017.01 1017.95 1019.15 1020.59 1022.08 1023.10 1023.49 1021.24 1020.24 1020.12 1020.51 1021.31 1022.16 1023.08 1023.80 1024.13
1010.61 1012.17 1012.38 1012.39 1012.92 1012.89 1013.09 1012.53 1011.58 1010.43 1010.21 1010.24 1010.83 1011.22 1012.38 1013.54 1014.03 1014.74 1015.15 1015.35 1015.47 1015.88 1016.26 1016.64 1018.25 1018.76 1018.66 1018.18 1017.90 1017.85 1018.24 1019.08 1020.15 1021.84 1022.55 1021.85 1020.93 1020.71 1020.96 1021.32 1021.98 1022.70 1023.38 1023.88 1024.10
1010.44 1011.59 1011.74 1013.03 1013.52 1013.07 1012.75 1012.45 1011.65 1010.85 1010.50 1010.68 1011.26 1011.69 1012.52 1013.91 1014.57 1015.10 1015.54 1015.91 1016.24 1016.68 1017.19 1017.84 1019.41 1020.01 1019.96 1019.53 1018.88 1018.51 1018.52 1019.08 1019.90 1020.41 1021.18 1020.58 1020.67 1020.22 1020.59 1021.27 1022.02 1022.74 1023.43 1023.87 1024.22
1010.28 1011.12 1012.04 1012.61 1012.62 1013.05 1012.97 1012.57 1011.95 1011.49 1011.41 1011.49 1011.88 1012.64 1013.10 1013.90 1014.40 1015.21 1015.77 1016.40 1016.71 1017.60 1018.47 1019.41 1020.96 1021.48 1021.49 1020.90 1020.41 1019.54 1018.93 1018.94 1019.32 1019.67 1019.98 1020.10 1020.06 1019.74 1020.34 1021.27 1022.21 1022.59 1023.13 1023.57 1023.83
1009.56 1010.06 1010.71 1013.10 1013.26 1013.24 1013.02 1012.46 1012.09 1011.89 1012.19 1012.17 1012.43 1013.24 1014.13 1014.61 1015.08 1015.62 1016.17 1016.76 1017.25 1018.23 1019.71 1020.82 1021.88 1023.06 1023.23 1022.30 1021.17 1020.05 1018.32 1018.26 1018.37 1018.50 1018.95 1019.70 1019.20 1019.83 1020.59 1020.96 1021.43 1022.23 1022.68 1022.96 1023.25
Thickness
5617 5616 5613 5613 5614 5614 5613 5612 5613 5613 5611 5612 5614 5614 5615 5617 5622 5629 5636 5661 5666 5670 5674 5673 5674 5673 5674 5671 5676 5674 5646 5644 5664 5672 5677 5682 5679 5686 5693 5684 5688 5689 5685 5685 5679
5617 5613 5614 5613 5612 5612 5612 5610 5610 5611 5609 5610 5613 5613 5613 5614 5620 5633 5671 5672 5670 5671 5667 5666 5662 5665 5659 5667 5669 5663 5642 5651 5675 5680 5680 5685 5682 5680 5681 5678 5674 5675 5680 5681 5677
5617 5612 5614 5614 5612 5611 5610 5609 5609 5610 5608 5609 5611 5611 5611 5612 5623 5656 5682 5677 5672 5670 5670 5670 5667 5663 5659 5666 5669 5664 5656 5667 5686 5688 5691 5684 5678 5683 5675 5670 5673 5672 5670 5671 5670
5615 5611 5614 5613 5611 5610 5609 5609 5609 5608 5608 5610 5610 5610 5610 5612 5630 5672 5682 5678 5673 5670 5668 5666 5663 5658 5658 5661 5673 5667 5673 5681 5688 5694 5685 5679 5681 5679 5682 5686 5689 5686 5682 5674 5670
5613 5610 5613 5612 5611 5608 5608 5609 5608 5607 5608 5607 5607 5607 5610 5620 5639 5674 5679 5677 5670 5668 5664 5661 5659 5662 5659 5664 5671 5672 5680 5684 5684 5687 5681 5685 5678 5679 5680 5683 5684 5680 5677 5673 5670
5612 5611 5613 5611 5609 5608 5607 5607 5606 5606 5606 5604 5604 5605 5607 5623 5674 5676 5676 5674 5675 5672 5667 5669 5671 5674 5669 5672 5673 5680 5678 5681 5682 5681 5682 5676 5678 5685 5680 5677 5674 5675 5673 5672 5670
5611 5611 5612 5609 5608 5606 5606 5606 5605 5604 5602 5601 5603 5605 5613 5642 5676 5676 5678 5678 5681 5682 5676 5681 5683 5679 5680 5674 5683 5678 5673 5678 5679 5685 5678 5682 5673 5671 5674 5675 5672 5670 5668 5664 5663
5612 5611 5611 5609 5606 5604 5604 5604 5603 5602 5600 5600 5603 5605 5625 5671 5676 5678 5682 5683 5688 5689 5689 5695 5689 5681 5681 5684 5672 5666 5659 5648 5671 5679 5674 5677 5648 5655 5661 5668 5661 5662 5661 5658 5655
5612 5611 5610 5607 5604 5602 5602 5601 5600 5600 5598 5600 5601 5606 5633 5674 5671 5686 5689 5685 5692 5693 5692 5693 5689 5677 5676 5661 5650 5648 5639 5655 5665 5672 5673 5665 5648 5641 5651 5659 5653 5650 5650 5650 5647
5612 5612 5609 5606 5602 5600 5598 5598 5598 5598 5598 5600 5605 5612 5648 5656 5673 5683 5693 5693 5689 5692 5689 5684 5674 5665 5660 5655 5631 5642 5647 5651 5655 5663 5645 5639 5627 5634 5640 5645 5639 5639 5639 5638 5637
5612 5612 5609 5604 5601 5597 5595 5595 5597 5602 5603 5626 5632 5637 5651 5663 5676 5676 5687 5687 5686 5678 5663 5670 5653 5642 5658 5663 5663 5661 5658 5651 5651 5650 5633 5621 5622 5625 5630 5632 5631 5631 5632 5632 5632
5611 5611 5608 5603 5601 5597 5595 5603 5626 5632 5622 5634 5636 5642 5655 5664 5657 5671 5688 5674 5670 5654 5667 5655 5647 5663 5665 5666 5664 5658 5646 5637 5642 5644 5635 5624 5617 5622 5627 5628 5629 5628 5627 5628 5628
5610 5610 5605 5600 5600 5595 5600 5619 5636 5638 5621 5637 5645 5649 5662 5665 5657 5665 5680 5674 5667 5662 5656 5645 5656 5665 5663 5658 5656 5650 5646 5648 5638 5637 5633 5630 5616 5615 5624 5625 5626 5625 5626 5625 5622
5610 5607 5603 5600 5595 5604 5611 5637 5639 5639 5604 5626 5645 5658 5666 5667 5657 5677 5681 5674 5662 5647 5651 5649 5657 5655 5655 5654 5654 5648 5655 5644 5633 5635 5616 5628 5594 5613 5616 5618 5619 5619 5616 5616 5618
5608 5604 5603 5607 5608 5613 5634 5640 5641 5636 5570 5632 5647 5676 5668 5659 5660 5666 5677 5675 5657 5655 5652 5646 5652 5651 5650 5656 5660 5648 5650 5642 5638 5625 5620 5618 5599 5602 5608 5607 5609 5609 5610 5611 5610
5608 5603 5601 5599 5606 5628 5636 5641 5637 5591 5584 5633 5651 5652 5654 5657 5659 5666 5665 5672 5665 5648 5649 5648 5660 5656 5656 5657 5657 5655 5641 5630 5623 5615 5593 5615 5606 5595 5600 5613 5610 5610 5608 5604 5602
5606 5603 5603 5614 5624 5635 5639 5633 5589 5575 5634 5632 5639 5651 5649 5643 5646 5650 5644 5639 5638 5628 5625 5637 5641 5649 5656 5650 5650 5641 5628 5597 5597 5579 5584 5611 5602 5611 5618 5617 5616 5609 5603 5598 5595
5604 5601 5609 5619 5632 5636 5636 5612 5597 5616 5624 5644 5644 5644 5640 5646 5641 5640 5638 5629 5639 5636 5616 5614 5605 5640 5649 5647 5639 5633 5625 5595 5592 5571 5593 5608 5599 5612 5622 5620 5617 5611 5602 5593 5589
5598 5597 5606 5628 5634 5634 5619 5575 5597 5614 5641 5640 5643 5636 5637 5643 5640 5634 5629 5627 5634 5639 5626 5615 5621 5643 5647 5648 5645 5631 5611 5620 5589 5576 5580 5586 5608 5618 5615 5611 5609 5604 5596 5586 5576
5599 5603 5615 5628 5634 5632 5602 5595 5618 5635 5648 5649 5633 5637 5628 5636 5632 5629 5629 5631 5633 5636 5637 5629 5617 5632 5641 5645 5638 5637 5626 5607 5585 5583 5574 5583 5593 5596 5607 5607 5605 5597 5589 5577 5570
5599 5602 5616 5627 5631 5615 5588 5603 5624 5643 5651 5649 5638 5632 5631 5630 5627 5622 5622 5627 5631 5634 5636 5630 5618 5617 5632 5625 5623 5623 5617 5602 5594 5574 5567 5552 5585 5608 5611 5611 5602 5592 5582 5574 5565
5595 5591 5613 5624 5601 5586 5600 5618 5633 5645 5654 5652 5648 5642 5631 5627 5620 5618 5618 5623 5625 5631 5628 5624 5606 5589 5619 5630 5631 5631 5622 5607 5576 5591 5546 5537 5582 5606 5604 5606 5597 5584 5574 5564 5556
5592 5595 5609 5617 5580 5562 5608 5623 5632 5642 5648 5649 5643 5642 5633 5621 5611 5615 5615 5623 5625 5627 5623 5623 5600 5582 5600 5615 5625 5628 5617 5601 5590 5569 5577 5550 5581 5602 5600 5595 5587 5573 5563 5554 5547
5591 5579 5591 5595 5596 5606 5614 5620 5627 5645 5646 5647 5640 5640 5628 5619 5615 5610 5613 5619 5623 5622 5617 5621 5602 5602 5591 5608 5609 5617 5616 5606 5600 5563 5574 5568 5599 5598 5591 5582 5571 5563 5553 5546 5540
5588 5585 5598 5577 5590 5606 5616 5622 5626 5634 5646 5643 5640 5639 5630 5617 5614 5610 5613 5616 5618 5617 5614 5613 5602 5602 5597 5597 5607 5614 5614 5603 5600 5597 5587 5596 5589 5596 5587 5576 5566 5557 5546 5539 5531
5589 5588 5586 5594 5605 5608 5606 5616 5624 5633 5636 5637 5633 5630 5631 5614 5621 5609 5611 5611 5615 5610 5605 5597 5581 5589 5597 5587 5586 5600 5605 5601 5598 5599 5590 5593 5590 5591 5579 5565 5556 5551 5541 5532 5525
5591 5598 5602 5573 5590 5598 5599 5621 5625 5630 5629 5631 5632 5623 5622 5622 5618 5611 5608 5605 5609 5608 5590 5578 5561 5570 5573 5563 5569 5576 5600 5598 5599 5598 5594 5581 5594 5576 5571 5565 5558 5543 5535 5528 5520